Location: Martley
(52.2333°N, 2.3667°W)
Time: 07:23:01
(UTC+00:00)

Meteor 2-13 Rocket - Pass Details

Date: 11 December 2019
Orbit: 937 x 957 km, 82.5° (Epoch: 18 January)

Event Time Altitude Azimuth Distance (km) Brightness Sun altitude
Rises 06:00:25 0° 348° (NNW) 3,634 7.2 -18.3°
Reaches altitude 10° 06:02:54 10° 348° (NNW) 2,688 6.5 -17.9°
Maximum altitude 06:09:04 81° 262° (W) 971 4.4 -17.0°
Drops below altitude 10° 06:15:12 10° 176° (S) 2,680 7.1 -16.1°
Sets 06:17:41 0° 175° (S) 3,623 7.8 -15.7°
